KA8DUX-2 Weather Reports


Display with metric or nautical units.
time (UTC)temp
F
wind
direction
speed
MPH
gust
MPH
rain 1hr
in
rain 24hr
in
rain mn
in
humidity
%
barometer
mb
20260506141021 50 123 0.0 0.0 0.00 0.00 0.00 49 1011.9
20260506140518 51 326 2.0 2.0 0.00 0.00 0.00 49 1011.6
20260506140015 49 123 0.0 0.0 0.00 0.00 0.00 50 1011.8
20260506135512 50 101 1.0 1.0 0.00 0.00 0.00 47 1011.6
20260506135008 48 122 0.0 0.0 0.00 0.00 0.00 55 1011.6
20260506134504 48 119 0.0 1.0 0.00 0.00 0.00 55 1011.4
20260506134001 48 25 2.0 2.0 0.00 0.00 0.00 56 1011.6
20260506133458 48 29 1.0 2.0 0.00 0.00 0.00 57 1011.2
20260506132954 47 198 0.0 1.0 0.00 0.00 0.00 59 1011.5
20260506132451 47 107 1.0 1.0 0.00 0.00 0.00 61 1011.4
20260506131949 46 123 0.0 0.0 0.00 0.00 0.00 61 1011.4
20260506131445 46 179 0.0 1.0 0.00 0.00 0.00 64 1011.2
20260506130942 45 144 1.0 1.0 0.00 0.00 0.00 64 1011.4
20260506130439 45 141 1.0 2.0 0.00 0.00 0.00 65 1011.2
20260506125937 45 34 1.0 1.0 0.00 0.00 0.00 66 1011.4
20260506125435 44 111 0.0 1.0 0.00 0.00 0.00 68 1011.5
20260506124933 43 71 1.0 1.0 0.00 0.00 0.00 68 1011.5
20260506124430 43 142 1.0 1.0 0.00 0.00 0.00 69 1011.6
20260506123928 42 125 1.0 2.0 0.00 0.00 0.00 71 1011.6
20260506123426 42 123 1.0 2.0 0.00 0.00 0.00 71 1011.2
20260506122923 42 83 0.0 0.0 0.00 0.00 0.00 72 1011.4
20260506122419 42 63 0.0 0.0 0.00 0.00 0.00 73 1011.2
20260506121918 41 71 1.0 1.0 0.00 0.00 0.00 73 1011.4
20260506121415 41 111 1.0 1.0 0.00 0.00 0.00 74 1011.2
20260506120912 41 107 0.0 0.0 0.00 0.00 0.00 74 1010.8
20260506120409 40 99 1.0 1.0 0.00 0.00 0.00 75 1011.0
20260506115906 40 149 0.0 1.0 0.00 0.00 0.00 75 1011.1
20260506115404 40 128 0.0 0.0 0.00 0.00 0.00 76 1010.8
20260506114903 39 120 0.0 1.0 0.00 0.00 0.00 76 1010.7
20260506114400 39 124 0.0 0.0 0.00 0.00 0.00 77 1010.6
20260506113859 39 51 1.0 1.0 0.00 0.00 0.00 77 1010.4
20260506113355 39 127 0.0 0.0 0.00 0.00 0.00 78 1010.3
20260506112851 38 0 0.0 1.0 0.00 0.00 0.00 78 1010.4
20260506112349 38 91 1.0 1.0 0.00 0.00 0.00 79 1010.1
20260506111846 38 115 0.0 0.0 0.00 0.00 0.00 80 1009.9
20260506111344 37 51 0.0 0.0 0.00 0.00 0.00 81 1009.9
20260506110842 37 120 0.0 0.0 0.00 0.00 0.00 82 1009.9
20260506110339 36 129 0.0 0.0 0.00 0.00 0.00 83 1009.8
20260506105836 36 129 0.0 0.0 0.00 0.00 0.00 84 1009.8
20260506105332 36 116 0.0 0.0 0.00 0.00 0.00 84 1010.0
20260506104830 36 118 0.0 0.0 0.00 0.00 0.00 86 1009.9
20260506104327 35 118 0.0 0.0 0.00 0.00 0.00 87 1010.1
20260506103824 35 136 0.0 0.0 0.00 0.00 0.00 87 1009.9
20260506103322 35 148 0.0 0.0 0.00 0.00 0.00 87 1010.0
20260506102819 35 132 0.0 0.0 0.00 0.00 0.00 87 1009.8
20260506102317 35 132 0.0 0.0 0.00 0.00 0.00 87 1009.8
20260506101814 35 135 0.0 0.0 0.00 0.00 0.00 87 1010.0
20260506101310 36 132 0.0 0.0 0.00 0.00 0.00 87 1009.9
20260506100808 35 132 0.0 0.0 0.00 0.00 0.00 87 1009.7
20260506100306 35 132 0.0 0.0 0.00 0.00 0.00 87 1010.0
20260506095804 35 132 0.0 0.0 0.00 0.00 0.00 87 1009.7
20260506095301 36 132 0.0 0.0 0.00 0.00 0.00 87 1009.7
20260506094758 36 132 0.0 0.0 0.00 0.00 0.00 87 1009.7
20260506094256 36 129 0.0 0.0 0.00 0.00 0.00 87 1009.5
20260506093755 36 122 0.0 0.0 0.00 0.00 0.00 87 1009.6
20260506093251 36 132 0.0 0.0 0.00 0.00 0.00 87 1009.4
20260506092749 36 129 0.0 0.0 0.00 0.00 0.00 86 1009.4
20260506092246 36 132 0.0 0.0 0.00 0.00 0.00 86 1009.3
20260506091743 36 129 0.0 0.0 0.00 0.00 0.00 86 1009.4
20260506091241 36 129 0.0 0.0 0.00 0.00 0.00 86 1009.2
20260506090739 36 129 0.0 0.0 0.00 0.00 0.00 86 1009.0
20260506090236 36 129 0.0 0.0 0.00 0.00 0.00 85 1009.1
20260506085732 37 129 0.0 0.0 0.00 0.00 0.00 84 1009.2
20260506085229 37 129 0.0 0.0 0.00 0.00 0.00 84 1009.0
20260506084726 37 129 0.0 0.0 0.00 0.00 0.00 84 1009.2
20260506084221 37 129 0.0 0.0 0.00 0.00 0.00 83 1008.7
20260506083719 38 130 0.0 0.0 0.00 0.00 0.00 82 1009.1
20260506083216 38 130 0.0 0.0 0.00 0.00 0.00 82 1008.9
20260506082714 38 130 0.0 0.0 0.00 0.00 0.00 81 1008.8
20260506082209 39 133 0.0 0.0 0.00 0.00 0.00 81 1009.0
20260506081707 39 129 0.0 0.0 0.00 0.00 0.00 80 1008.9
20260506081204 39 129 0.0 0.0 0.00 0.00 0.00 80 1009.0
20260506080702 39 129 0.0 0.0 0.00 0.00 0.00 80 1009.0
20260506080158 39 129 0.0 0.0 0.00 0.00 0.00 80 1009.1
20260506073143 39 125 0.0 0.0 0.00 0.00 0.00 79 1008.9
20260506072639 39 119 0.0 0.0 0.00 0.00 0.00 78 1009.2
20260506072137 40 136 0.0 0.0 0.00 0.00 0.00 78 1009.1
20260506071634 40 137 0.0 0.0 0.00 0.00 0.00 77 1009.1
20260506071132 40 137 0.0 0.0 0.00 0.00 0.00 77 1009.3
20260506070628 40 136 0.0 0.0 0.00 0.00 0.00 77 1009.1
20260506070126 41 136 0.0 0.0 0.00 0.00 0.00 76 1009.2
20260506062103 43 130 0.0 0.0 0.00 0.00 0.00 69 1009.2
20260506061558 42 102 0.0 0.0 0.00 0.00 0.00 69 1009.1
20260506061056 43 140 0.0 0.0 0.00 0.00 0.00 69 1009.3
20260506060555 43 126 0.0 0.0 0.00 0.00 0.00 69 1009.4
20260506051024 44 104 1.0 1.0 0.00 0.00 0.00 67 1009.3
20260506050521 43 160 0.0 1.0 0.00 0.00 0.00 67 1009.1
20260506045012 44 136 0.0 0.0 0.00 0.00 0.00 66 1009.3
20260506044510 44 133 0.0 0.0 0.00 0.00 0.00 68 1009.1
20260506044006 44 142 0.0 0.0 0.00 0.00 0.00 68 1008.7
20260506043503 44 136 0.0 0.0 0.00 0.00 0.00 68 1008.6
20260506043002 44 135 0.0 0.0 0.00 0.00 0.00 68 1008.7
20260506042501 44 140 0.0 0.0 0.00 0.00 0.00 68 1008.7
20260506041958 44 136 0.0 0.0 0.00 0.00 0.00 67 1008.5
20260506041456 44 133 0.0 0.0 0.00 0.00 0.00 68 1008.5
20260506040953 44 138 0.0 0.0 0.00 0.00 0.00 68 1008.8
20260506040451 43 131 0.0 0.0 0.00 0.00 0.00 69 1008.7
20260506035946 43 126 0.0 0.0 0.00 0.00 0.00 70 1008.6
20260506035444 43 132 0.0 0.0 0.00 0.00 0.00 72 1009.0
20260506034940 43 166 0.0 0.0 0.00 0.00 0.00 71 1008.9
20260506034438 43 125 0.0 0.0 0.00 0.00 0.00 71 1008.4
20260506033935 43 125 0.0 0.0 0.00 0.00 0.00 72 1008.5
20260506033432 43 129 0.0 0.0 0.00 0.00 0.00 72 1008.3
20260506032928 43 116 0.0 0.0 0.00 0.00 0.00 71 1008.3
20260506032426 43 124 0.0 0.0 0.00 0.00 0.00 70 1008.5
20260506031922 43 132 0.0 0.0 0.00 0.00 0.00 71 1008.5
20260506031420 43 133 0.0 0.0 0.00 0.00 0.00 71 1008.6
20260506030917 43 133 0.0 0.0 0.00 0.00 0.00 70 1008.7
20260506030415 43 133 0.0 0.0 0.00 0.00 0.00 70 1008.7
20260506025912 43 133 0.0 0.0 0.00 0.00 0.00 69 1008.7
20260506025409 44 133 0.0 0.0 0.00 0.00 0.00 69 1008.6
20260506024905 44 132 0.0 0.0 0.00 0.00 0.00 69 1008.4
20260506024403 44 132 0.0 0.0 0.00 0.00 0.00 68 1008.2
20260506023858 44 132 0.0 0.0 0.00 0.00 0.00 67 1008.3
20260506023355 44 132 0.0 0.0 0.00 0.00 0.00 68 1008.1
20260506022852 44 132 0.0 0.0 0.00 0.00 0.00 67 1008.2
20260506022349 44 130 0.0 0.0 0.00 0.00 0.00 67 1008.3
20260506021847 44 130 0.0 0.0 0.00 0.00 0.00 67 1008.2
20260506021344 44 131 0.0 0.0 0.00 0.00 0.00 67 1008.0
20260506020841 44 131 0.0 0.0 0.00 0.00 0.00 66 1008.0
20260506020339 44 131 0.0 0.0 0.00 0.00 0.00 66 1008.0
20260506015836 44 132 0.0 0.0 0.00 0.00 0.00 65 1008.1
20260506015333 44 132 0.0 0.0 0.00 0.00 0.00 65 1008.1
20260506014830 44 127 0.0 0.0 0.00 0.00 0.00 63 1007.8
20260506014327 45 126 0.0 0.0 0.00 0.00 0.00 64 1007.7
20260506013824 45 126 0.0 0.0 0.00 0.00 0.00 62 1007.7
20260506013321 45 130 0.0 0.0 0.00 0.00 0.00 61 1007.6
20260506012817 46 134 0.0 0.0 0.00 0.00 0.00 63 1007.4
20260506012315 46 130 0.0 0.0 0.00 0.00 0.00 60 1007.6
20260506011812 46 133 0.0 0.0 0.00 0.00 0.00 58 1007.3
20260506011308 46 136 0.0 0.0 0.00 0.00 0.00 56 1007.3
20260506010806 46 134 0.0 0.0 0.00 0.00 0.00 56 1007.4
20260506010304 47 135 0.0 0.0 0.00 0.00 0.00 56 1007.4
20260506005800 47 132 0.0 0.0 0.00 0.00 0.00 54 1007.4
20260506005257 48 132 0.0 0.0 0.00 0.00 0.00 54 1007.5
20260506004753 48 132 0.0 0.0 0.00 0.00 0.00 53 1007.4
20260506004251 48 133 0.0 0.0 0.00 0.00 0.00 52 1007.4
20260506003747 49 148 0.0 0.0 0.00 0.00 0.00 51 1007.2
20260506003243 49 148 0.0 0.0 0.00 0.00 0.00 51 1007.2
20260506002740 50 142 0.0 0.0 0.00 0.00 0.00 51 1007.3
20260506002236 50 132 0.0 0.0 0.00 0.00 0.00 50 1007.3
20260506001731 50 144 0.0 0.0 0.00 0.00 0.00 51 1007.3
20260506001229 50 136 0.0 0.0 0.00 0.00 0.00 51 1007.4
20260506000726 50 148 1.0 1.0 0.00 0.00 0.00 48 1007.3
20260506000226 51 139 0.0 0.0 0.00 0.00 0.00 49 1007.4
20260505235721 51 140 0.0 0.0 0.00 0.00 0.00 48 1007.4
20260505235218 51 175 1.0 1.0 0.00 0.00 0.00 47 1007.2
20260505234715 51 211 2.0 2.0 0.00 0.00 0.00 47 1007.4
20260505234212 51 186 2.0 2.0 0.00 0.00 0.00 46 1007.3
20260505233709 51 206 1.0 1.0 0.00 0.00 0.00 47 1007.3
20260505233207 51 134 0.0 1.0 0.00 0.00 0.00 47 1007.2
20260505232704 51 131 0.0 0.0 0.00 0.00 0.00 48 1007.4
20260505232201 52 222 2.0 2.0 0.00 0.00 0.00 47 1007.2
20260505231658 52 243 1.0 2.0 0.00 0.00 0.00 47 1007.1
20260505231157 52 130 0.0 1.0 0.00 0.00 0.00 49 1007.1
20260505230655 52 147 0.0 0.0 0.00 0.00 0.00 46 1007.1
20260505230151 52 133 0.0 0.0 0.00 0.00 0.00 49 1007.3
20260505225647 52 184 2.0 3.0 0.00 0.00 0.00 46 1007.4
20260505225143 52 194 1.0 1.0 0.00 0.00 0.00 46 1007.3
20260505224639 52 132 1.0 1.0 0.00 0.00 0.00 45 1007.4
20260505224138 53 216 1.0 2.0 0.00 0.00 0.00 44 1007.3
20260505223635 53 319 2.0 2.0 0.00 0.00 0.00 45 1007.3
20260505223130 53 217 2.0 2.0 0.00 0.00 0.00 45 1007.3
20260505222627 52 238 0.0 1.0 0.00 0.00 0.00 47 1007.3
20260505222123 53 155 1.0 1.0 0.00 0.00 0.00 45 1007.1
20260505221620 53 142 0.0 0.0 0.00 0.00 0.00 48 1007.4
20260505221117 53 176 2.0 3.0 0.00 0.00 0.00 47 1007.4
20260505220614 53 193 3.0 3.0 0.00 0.00 0.00 45 1007.1
20260505220112 53 108 1.0 1.0 0.00 0.00 0.00 46 1007.1
20260505215610 53 236 1.0 2.0 0.00 0.00 0.00 45 1006.9
20260505215107 53 356 2.0 2.0 0.00 0.00 0.00 46 1007.5
20260505214605 53 160 3.0 5.0 0.00 0.00 0.00 46 1007.5
20260505214102 53 95 2.0 2.0 0.00 0.00 0.00 45 1007.4
20260505213600 53 247 2.0 3.0 0.00 0.00 0.00 44 1007.3
20260505213056 53 147 1.0 1.0 0.00 0.00 0.00 46 1007.2
20260505212552 53 130 1.0 1.0 0.00 0.00 0.00 44 1007.2
20260505212050 54 119 2.0 2.0 0.00 0.00 0.00 43 1007.2
20260505211546 53 129 0.0 1.0 0.00 0.00 0.00 44 1007.2
20260505211043 53 134 0.0 1.0 0.00 0.00 0.00 43 1007.5
20260505210540 53 253 3.0 3.0 0.00 0.00 0.00 43 1007.4
20260505210037 54 19 1.0 2.0 0.00 0.00 0.00 45 1007.4
20260505205535 54 269 3.0 5.0 0.00 0.00 0.00 42 1007.5
20260505205032 54 197 1.0 1.0 0.00 0.00 0.00 44 1007.4
20260505204530 54 343 2.0 3.0 0.00 0.00 0.00 43 1007.4
20260505204027 55 310 4.0 5.0 0.00 0.00 0.00 42 1007.4
20260505203523 55 252 1.0 2.0 0.00 0.00 0.00 43 1007.6
20260505203020 55 64 2.0 2.0 0.00 0.00 0.00 42 1007.8
20260505202516 54 184 3.0 3.0 0.00 0.00 0.00 43 1007.6
20260505202012 54 37 2.0 2.0 0.00 0.00 0.00 43 1007.6
20260505201510 54 304 1.0 1.0 0.00 0.00 0.00 45 1007.5
20260505201007 55 304 3.0 5.0 0.00 0.00 0.00 43 1007.6
20260505200505 54 246 3.0 3.0 0.00 0.00 0.00 44 1007.7
20260505200001 55 116 5.0 6.0 0.00 0.00 0.00 42 1007.6
20260505195458 55 192 1.0 2.0 0.00 0.00 0.00 45 1007.6
20260505194955 55 132 0.0 0.0 0.00 0.00 0.00 45 1007.5
20260505194452 55 145 1.0 1.0 0.00 0.00 0.00 43 1007.7
20260505193952 56 181 4.0 7.0 0.00 0.00 0.00 40 1007.6
20260505193450 56 110 2.0 3.0 0.00 0.00 0.00 40 1007.5
20260505192947 56 227 6.0 7.0 0.00 0.00 0.00 40 1007.6
20260505192446 56 163 1.0 2.0 0.00 0.00 0.00 42 1007.5
20260505191943 56 344 5.0 7.0 0.00 0.00 0.00 41 1007.5
20260505191442 56 168 2.0 2.0 0.00 0.00 0.00 42 1007.4
20260505190938 55 261 2.0 3.0 0.00 0.00 0.00 42 1007.4
20260505190433 55 135 0.0 1.0 0.00 0.00 0.00 41 1007.2
20260505185929 56 253 4.0 5.0 0.00 0.00 0.00 40 1007.1
20260505185427 55 61 3.0 5.0 0.00 0.00 0.00 41 1007.1
20260505184923 55 147 5.0 8.0 0.00 0.00 0.00 40 1007.0
20260505184420 55 274 2.0 2.0 0.00 0.00 0.00 40 1007.4
20260505183916 56 147 1.0 2.0 0.00 0.00 0.00 41 1007.1
20260505183414 55 260 3.0 5.0 0.00 0.00 0.00 40 1007.1
20260505182910 56 250 3.0 5.0 0.00 0.00 0.00 37 1006.8
20260505182407 56 336 2.0 2.0 0.00 0.00 0.00 40 1006.9
20260505181903 56 133 2.0 3.0 0.00 0.00 0.00 39 1006.5
20260505181401 56 239 1.0 1.0 0.00 0.00 0.00 39 1006.9
20260505180857 57 209 0.0 1.0 0.00 0.00 0.00 38 1006.9
20260505180354 57 123 2.0 2.0 0.00 0.00 0.00 40 1006.9
20260505175850 56 252 0.0 1.0 0.00 0.00 0.00 39 1007.1
20260505175347 57 158 2.0 3.0 0.00 0.00 0.00 36 1006.8
20260505174843 58 133 0.0 1.0 0.00 0.00 0.00 40 1006.3
20260505174341 56 119 3.0 6.0 0.00 0.00 0.00 38 1006.4
20260505173836 57 309 3.0 5.0 0.00 0.00 0.00 37 1006.4
20260505173333 57 22 2.0 3.0 0.00 0.00 0.00 37 1006.7
20260505172830 57 250 5.0 7.0 0.00 0.00 0.00 36 1006.5
20260505172328 57 120 1.0 2.0 0.00 0.00 0.00 37 1006.4
20260505171827 57 284 2.0 3.0 0.00 0.00 0.00 36 1006.4
20260505171325 55 88 2.0 3.0 0.00 0.00 0.00 39 1006.3
20260505170821 56 155 3.0 3.0 0.00 0.00 0.00 35 1006.4
20260505170318 55 107 2.0 3.0 0.00 0.00 0.00 35 1005.9
20260505165813 56 285 2.0 3.0 0.00 0.00 0.00 37 1006.0
20260505165309 57 255 2.0 3.0 0.00 0.00 0.00 37 1006.2
20260505164805 56 173 2.0 3.0 0.00 0.00 0.00 35 1006.2
20260505164303 55 6 1.0 2.0 0.00 0.00 0.00 37 1006.0
20260505163801 55 11 2.0 3.0 0.00 0.00 0.00 38 1006.2
20260505163259 55 226 4.0 6.0 0.00 0.00 0.00 36 1005.9
20260505162756 55 125 3.0 3.0 0.00 0.00 0.00 36 1006.3
20260505162253 55 222 3.0 3.0 0.00 0.00 0.00 36 1006.3
20260505161750 55 132 0.0 1.0 0.00 0.00 0.00 43 1006.0
20260505161247 55 193 2.0 3.0 0.00 0.00 0.00 37 1006.2
20260505160744 57 245 3.0 3.0 0.00 0.00 0.00 38 1006.2
20260505160242 56 132 0.0 1.0 0.00 0.00 0.00 40 1006.4
20260505153221 55 94 1.0 2.0 0.00 0.00 0.00 42 1006.4
20260505152718 53 88 1.0 1.0 0.00 0.00 0.00 45 1006.6
20260505152214 53 84 1.0 1.0 0.00 0.00 0.00 44 1006.5
20260505151709 53 126 0.0 1.0 0.00 0.00 0.00 48 1006.7
20260505151207 53 146 0.0 1.0 0.00 0.00 0.00 49 1006.7
20260505150703 52 170 1.0 3.0 0.00 0.00 0.00 53 1006.7
20260505150201 52 132 1.0 1.0 0.00 0.00 0.00 56 1006.8